STARLINK-1390 (45550 NORAD) Tracking and Keplerian Element Data

This shows tracking and keplerian element data for the satellite.

Feedback or suggestion? Click here.




ElementValue
Catalog45550
NameSTARLINK-1390
Epoch Orbit175
Epoch Day196.91667824
Epoch Year2020
RAAN11.2914
Inclination52.993
Eccentricity0.0001616
Argument of Perigee94.4752
Mean Anonmoly105.2409
Mean Motion15.05542075
Decay Rate0.00043261
L11 45550U 20025V 20196.91667824 .00043261 00000-0 29731-2 0 9999
L22 45550 52.9930 11.2914 0001616 94.4752 105.2409 15.05542075 1750

Live tracking and technical data element details for STARLINK-1390 (NORAD 45550). STARLINK-1390 can be tracked NOW for your location showing map with azimuth and elevation plus other details from your city location.

Track the satellite on the map from your city or location and see movement details for azimuth, elevation, latitude, longitude, range, height, and movement on the map or in text.







IsCatalogInMostPopularTable: catalog: 45550, numindb: 18
Update: records affected: 1



GetName: 45550 STARLINK-1390

Hit Count: updated at: Thu, 16 Jul 2020 04:12:32 GMT